Location: Newark
(47.7394°N, 8.0008°E)
Time: 21:01:45
(UTC+00:00)

N. Korean satellite - Pass Details

Date: 22 December 2019
Orbit: 454 x 507 km, 97.2° (Epoch: 28 January)

Event Time Altitude Azimuth Distance (km) Brightness Sun altitude
Rises 16:45:59 0° 180° (S) 2,577 10.6 -10.7°
Reaches altitude 10° 16:48:07 10° 187° (S) 1,692 9.7 -11.0°
Maximum altitude 16:51:38 45° 261° (W) 677 7.8 -11.6°
Drops below altitude 10° 16:55:07 10° 336° (NNW) 1,679 9.3 -12.1°
Sets 16:57:15 0° 342° (NNW) 2,555 10.2 -12.5°
